Location: *
(51.0333°S, 178.4667°E)
Time: 20:46:38
(UTC+00:00)

Resurs 01 Rocket - Pass Details

Date: 15 November 2019
Orbit: 634 x 645 km, 98.0° (Epoch: 15 December)

Event Time Altitude Azimuth Distance (km) Brightness Sun altitude
Rises 10:22:24 0° 172° (S) 3,004 6.1 -17.9°
Reaches altitude 10° 10:24:45 10° 180° (S) 2,086 5.3 -18.0°
Maximum altitude 10:28:56 37° 246° (WSW) 1,021 3.0 -18.2°
Drops below altitude 10° 10:33:05 10° 313° (NW) 2,063 4.0 -18.4°
Enters shadow 10:33:14 - 314° (NW) 2,119 4.1 -18.5°
